Beaver Lake Weather Center

Moon Phase Calendar



Beaver Lake Water Level
Online Cameras

 


      

Current Conditions in Prairie Creek
6/23/2024 9:27:00 PM

83°F
Feels Like 89
Clear
Humidity
72%
Pressure
29.94"
Wind
6.9 mph (ENE)
Dew Point
73°F
UV Index
0/10 (Low)
Visibility
6 mi

Hourly Forecast

Date & Time Sun, Jun 23
9:00 PM
Sun, Jun 23
10:00 PM
Sun, Jun 23
11:00 PM
Mon, Jun 24
12:00 AM
Mon, Jun 24
1:00 AM
Mon, Jun 24
2:00 AM
Mon, Jun 24
3:00 AM
Mon, Jun 24
4:00 AM
Mon, Jun 24
5:00 AM
Mon, Jun 24
6:00 AM
Mon, Jun 24
7:00 AM
Mon, Jun 24
8:00 AM
Mon, Jun 24
9:00 AM
Mon, Jun 24
10:00 AM
Mon, Jun 24
11:00 AM
Mon, Jun 24
12:00 PM
Mon, Jun 24
1:00 PM
Mon, Jun 24
2:00 PM
Mon, Jun 24
3:00 PM
Mon, Jun 24
4:00 PM
Mon, Jun 24
5:00 PM
Mon, Jun 24
6:00 PM
Mon, Jun 24
7:00 PM
Mon, Jun 24
8:00 PM
Mon, Jun 24
9:00 PM
Mon, Jun 24
10:00 PM
Mon, Jun 24
11:00 PM
Tue, Jun 25
12:00 AM
Tue, Jun 25
1:00 AM
Tue, Jun 25
2:00 AM
Tue, Jun 25
3:00 AM
Tue, Jun 25
4:00 AM
Tue, Jun 25
5:00 AM
Tue, Jun 25
6:00 AM
Tue, Jun 25
7:00 AM
Tue, Jun 25
8:00 AM
Tue, Jun 25
9:00 AM
Tue, Jun 25
10:00 AM
Tue, Jun 25
11:00 AM
Tue, Jun 25
12:00 PM
Tue, Jun 25
1:00 PM
Tue, Jun 25
2:00 PM
Tue, Jun 25
3:00 PM
Tue, Jun 25
4:00 PM
Tue, Jun 25
5:00 PM
Tue, Jun 25
6:00 PM
Tue, Jun 25
7:00 PM
Tue, Jun 25
8:00 PM
Condition
Clear

Clouds

Clouds

Clouds

Clouds

Clouds

Clouds

Clouds

Clouds

Clouds

Clouds

Clouds

Clear

Clear

Clear

Clear

Clear

Clear

Clear

Clear

Clear

Clear

Clear

Clear

Clouds

Clouds

Clouds

Clouds

Clouds

Clear

Clear

Clear

Clear

Clouds

Clouds

Clouds

Clouds

Clouds

Clouds

Clouds

Clouds

Clouds

Clouds

Clouds

Clouds

Clouds

Clouds

Clear
Temperature 83°F82°F80°F78°F75°F73°F74°F72°F72°F72°F75°F79°F84°F88°F91°F93°F95°F97°F98°F98°F97°F96°F91°F84°F83°F84°F84°F83°F78°F76°F75°F75°F74°F74°F75°F80°F85°F88°F90°F92°F93°F93°F90°F92°F86°F91°F87°F83°F
Feels Like 89°F87°F80°F78°F76°F74°F74°F73°F73°F73°F76°F79°F90°F94°F97°F99°F100°F101°F101°F100°F99°F99°F94°F87°F85°F88°F87°F86°F79°F76°F75°F76°F75°F75°F76°F80°F89°F91°F94°F95°F96°F96°F94°F96°F90°F95°F91°F88°F
Cloudiness 0%16%29%40%58%94%98%65%73%79%76%16%6%5%1%1%1%0%1%0%0%0%0%2%21%37%51%59%55%3%2%4%4%21%33%71%79%86%70%77%81%99%100%100%100%94%95%0%
Visibility 6 mi6 mi6 mi6 mi6 mi6 mi6 mi6 mi6 mi6 mi6 mi6 mi6 mi6 mi6 mi6 mi6 mi6 mi6 mi6 mi6 mi6 mi6 mi6 mi6 mi6 mi6 mi6 mi6 mi6 mi6 mi6 mi6 mi6 mi6 mi6 mi6 mi6 mi6 mi6 mi6 mi6 mi6 mi6 mi6 mi6 mi6 mi6 mi
Precipitation 0%0%0%0%0%0%0%0%0%0%0%0%0%0%0%0%0%0%0%0%0%0%0%0%0%0%0%0%0%0%0%0%0%0%0%0%0%0%0%0%0%0%0%0%0%0%0%0%
Humidity 72%71%71%72%74%77%79%86%88%90%87%77%67%59%53%47%41%36%33%32%32%37%46%61%59%58%58%59%67%73%76%77%79%80%82%73%58%50%47%43%41%43%49%46%57%45%55%67%
Dew Point 73°F72°F70°F68°F67°F65°F66°F67°F68°F69°F70°F71°F72°F71°F71°F70°F68°F65°F64°F63°F63°F65°F67°F69°F66°F68°F67°F67°F66°F66°F66°F66°F67°F67°F69°F70°F68°F67°F67°F66°F66°F66°F68°F68°F69°F66°F69°F71°F
Pressure 29.94"29.94"29.94"29.91"29.91"29.91"29.91"29.91"29.91"29.91"29.94"29.94"29.94"29.94"29.94"29.91"29.91"29.88"29.85"29.83"29.83"29.83"29.83"29.85"29.85"29.85"29.85"29.88"29.88"29.88"29.88"29.88"29.88"29.88"29.91"29.91"29.91"29.91"29.88"29.88"29.88"29.88"29.85"29.85"29.83"29.83"29.77"29.8"
Wind Speed 4.1 mph4.3 mph4.1 mph3.4 mph3 mph2.6 mph2.2 mph2.4 mph2.5 mph2.7 mph2.9 mph3.5 mph5.4 mph6.3 mph6.9 mph7.4 mph7.8 mph8.6 mph10 mph10.4 mph10.8 mph9.2 mph6.7 mph3.5 mph5.5 mph5.4 mph4.7 mph4.9 mph4.3 mph4.1 mph3.8 mph4.3 mph4.4 mph4.4 mph4 mph4.9 mph8.9 mph10.7 mph11 mph11.7 mph11.6 mph11.4 mph6.2 mph7.9 mph6.8 mph7.7 mph7.6 mph7.1 mph
Wind
Direction
50°
NE
91°
E
115°
ESE
124°
SE
135°
SE
130°
SE
135°
SE
146°
SE
164°
SSE
157°
SSE
173°
S
193°
SSW
211°
SSW
221°
SW
229°
SW
234°
SW
240°
WSW
241°
WSW
233°
SW
219°
SW
211°
SSW
221°
SW
238°
WSW
218°
SW
185°
S
184°
S
173°
S
186°
S
177°
S
182°
S
187°
S
186°
S
177°
S
176°
S
183°
S
190°
S
210°
SSW
231°
SW
233°
SW
234°
SW
241°
WSW
233°
SW
199°
SSW
219°
SW
209°
SSW
184°
S
138°
SE
167°
SSE

Daily Forecast

Date High Low Precip. Humidity
Today
Jun 23

Clouds
97 °F
75 °F
0%
50%
Monday
Jun 24

Clear
98 °F
72 °F
0%
41%
Tuesday
Jun 25

Clouds
93 °F
74 °F
0%
41%
Wednesday
Jun 26

Clouds
97 °F
73 °F
0%
48%
Thursday
Jun 27

Clouds
88 °F
68 °F
0%
46%
Friday
Jun 28

Rain
96 °F
74 °F
33%
45%
Saturday
Jun 29

Rain
83 °F
74 °F
100%
82%
Sunday
Jun 30

Rain
85 °F
70 °F
100%
68%
Monday
Jul 1

Clear
96 °F
70 °F
0%
47%
Tuesday
Jul 2

Clear
98 °F
77 °F
0%
40%
Wednesday
Jul 3

Clear
98 °F
74 °F
0%
38%
Thursday
Jul 4

Rain
95 °F
76 °F
35%
46%
Friday
Jul 5

Rain
94 °F
71 °F
100%
48%
Saturday
Jul 6

Clear
99 °F
72 °F
80%
34%
Sunday
Jul 7

Clear
105 °F
73 °F
0%
31%
Monday
Jul 8

Rain
102 °F
76 °F
34%
32%

Temperature 8-14 Day Outlook



Precipitation 8-14 Day Outlook






About Us
Contact Us
Site Map
Search Site
Advertise With Us
   
Beaver.USLakes.info
THE BEAVER LAKE WEBSITE

Copyright 2024, Lakes Online
Privacy    |    Legal